Weather History for KGLH - February, 2014

Change the Weather History Date:

Wednesday, February 26, 2014

  Actual Average Record
Temperature  
Mean Temperature 33 °F 50 °F  
Max Temperature 40 °F 60 °F 82 °F (1977)
Min Temperature 25 °F 40 °F 19 °F (1965)
Degree Days  
Heating Degree Days 32 15  
Month to date heating degree days 560 491  
Since 1 July heating degree days 2556 2280  
Cooling Degree Days 0 0  
Month to date cooling degree days 0 0  
Year to date cooling degree days 0 1  
Moisture  
Dew Point 25 °F    
Average Humidity 69    
Maximum Humidity 85    
Minimum Humidity 52    
Precipitation  
Precipitation 0.23 in 0.14 in 1.74 in (1923)
Month to date precipitation 3.45 4.74  
Year to date precipitation 4.29 9.71  
Sea Level Pressure  
Sea Level Pressure 30.18 in    
Wind  
Wind Speed 14 mph (North)    
Max Wind Speed 25 mph    
Max Gust Speed 32 mph    
Visibility 9 miles    
Events Rain    
T = Trace of Precipitation, MM = Missing Value Source: NWS Daily Summary

Daily Weather History Graph

Daily Weather History Graph

Search for Another Location

Airport or City:

Trip Planner

Search our weather history database for the weather conditions in past years. The results will help you decide how hot, cold, wet, or windy it might be!

Date:

Astronomy

Feb. 26, 2014 Rise Set
Actual Time 6:35 AM CST 5:58 PM CST
Civil Twilight 6:10 AM CST 6:23 PM CST
Nautical Twilight 5:41 AM CST 6:52 PM CST
Astronomical Twilight 5:13 AM CST 7:20 PM CST
Moon 4:15 AM CST (2/26) 3:18 PM CST (2/26)
Length of Visible Light 12h 12m
Length of Day
11h 22m
Waning Crescent, 10% of the Moon is Illuminated
Feb 26
Waning Crescent
Mar 1
New
Mar 8
First Quarter
Mar 16
Full
Mar 23
Last Quarter

Hourly Weather History & Observations

Time (CST) Temp. Windchill Dew Point Humidity Pressure Visibility Wind Dir Wind Speed Gust Speed Precip Events Conditions
12:53 AM 39.0 °F 30.3 °F 35.1 °F 86% 30.12 in 4.0 mi NNE 16.1 mph 25.3 mph 0.10 in Rain Rain
1:53 AM 37.9 °F 28.9 °F 34.0 °F 86% 30.15 in 4.0 mi North 16.1 mph 27.6 mph 0.07 in Rain Rain
2:25 AM 37.4 °F 28.2 °F 33.8 °F 87% 30.13 in 5.0 mi North 16.1 mph - 0.04 in Rain Light Rain
2:29 AM 37.4 °F 27.5 °F 33.8 °F 87% 30.12 in 5.0 mi North 18.4 mph 24.2 mph 0.04 in Rain Light Rain
2:53 AM 36.0 °F 24.2 °F 30.9 °F 82% 30.11 in 5.0 mi NNE 24.2 mph 31.1 mph 0.05 in Rain Light Rain
3:53 AM 34.0 °F 21.5 °F 28.9 °F 82% 30.18 in 6.0 mi North 24.2 mph 31.1 mph 0.01 in Rain Light Rain
4:53 AM 34.0 °F 22.1 °F 26.1 °F 73% 30.19 in 9.0 mi North 21.9 mph 29.9 mph 0.00 in   Overcast
5:53 AM 33.1 °F 21.5 °F 24.1 °F 70% 30.20 in 10.0 mi NNE 19.6 mph 28.8 mph N/A   Overcast
6:53 AM 32.0 °F 20.5 °F 23.0 °F 69% 30.22 in 10.0 mi NNE 18.4 mph 26.5 mph N/A   Overcast
7:53 AM 32.0 °F 20.1 °F 21.9 °F 66% 30.24 in 9.0 mi North 19.6 mph 26.5 mph N/A   Overcast
8:53 AM 32.0 °F 20.5 °F 21.9 °F 66% 30.25 in 10.0 mi North 18.4 mph - N/A   Clear
9:53 AM 32.0 °F 19.2 °F 21.9 °F 66% 30.25 in 10.0 mi North 23.0 mph 27.6 mph N/A   Scattered Clouds
10:53 AM 35.1 °F 25.2 °F 23.0 °F 61% 30.25 in 10.0 mi NNE 16.1 mph - N/A   Partly Cloudy
11:53 AM 37.0 °F 27.4 °F 24.1 °F 59% 30.23 in 10.0 mi NNE 17.3 mph 24.2 mph N/A   Partly Cloudy
12:53 PM 34.0 °F 23.0 °F 23.0 °F 64% 30.21 in 10.0 mi North 18.4 mph 24.2 mph N/A   Overcast
1:53 PM 37.0 °F 29.3 °F 21.9 °F 54% 30.17 in 10.0 mi North 11.5 mph - N/A   Scattered Clouds
2:53 PM 37.0 °F 27.4 °F 24.1 °F 59% 30.17 in 10.0 mi North 17.3 mph - N/A   Mostly Cloudy
3:53 PM 37.0 °F 28.1 °F 23.0 °F 57% 30.16 in 10.0 mi North 15.0 mph - N/A   Partly Cloudy
4:53 PM 37.0 °F 28.9 °F 21.9 °F 54% 30.15 in 10.0 mi NNE 12.7 mph - N/A   Clear
5:53 PM 34.0 °F 27.2 °F 19.9 °F 56% 30.15 in 10.0 mi NNE 8.1 mph - N/A   Clear
6:53 PM 32.0 °F 24.8 °F 21.0 °F 64% 30.14 in 10.0 mi NNE 8.1 mph - N/A   Clear
7:53 PM 30.0 °F 24.1 °F 21.9 °F 72% 30.15 in 10.0 mi North 5.8 mph - N/A   Clear
8:53 PM 28.9 °F - 21.0 °F 72% 30.17 in 10.0 mi Calm Calm - N/A   Clear
9:53 PM 27.0 °F - 21.9 °F 81% 30.17 in 10.0 mi Calm Calm - N/A   Clear
10:53 PM 27.0 °F - 19.0 °F 72% 30.17 in 10.0 mi Calm Calm - N/A   Clear
11:53 PM 26.1 °F - 17.1 °F 69% 30.16 in 10.0 mi Calm Calm - N/A   Clear